RYR215 LYNI-LYBE

Flight info

Callsign RYR215
Flight time 0h 36m
Altitude 24000
Route RAVAK L617 OSVIX
Aircraft B738/M-SDE2E3FGHIRWXY/LB1

Departure

Time 2026-05-05 06:04
Airport Niš Constantine the Great Airport (LYNI)

Arrival

Time 2026-05-05 06:40
Airport Belgrade Nikola Tesla Airport (LYBE)
Time Latitude Longitude Altitude Speed Heading
2026-05-05 05:36 43.33701 21.86572 652 ft 0 kts 61°
2026-05-05 05:48 43.33697 21.86561 654 ft 2 kts 53°
2026-05-05 05:48 43.33683 21.86550 654 ft 2 kts 40°
2026-05-05 05:49 43.33673 21.86532 654 ft 2 kts 71°
2026-05-05 05:49 43.33670 21.86511 656 ft 2 kts 100°
2026-05-05 05:49 43.33671 21.86506 656 ft 0 kts 108°
2026-05-05 05:59 43.33670 21.86509 652 ft 2 kts 109°
2026-05-05 05:59 43.33663 21.86532 653 ft 3 kts 114°
2026-05-05 05:59 43.33643 21.86596 654 ft 13 kts 113°
2026-05-05 06:00 43.33577 21.86684 653 ft 14 kts 158°
2026-05-05 06:00 43.33486 21.86701 651 ft 14 kts 198°
2026-05-05 06:00 43.33401 21.86647 649 ft 13 kts 205°
2026-05-05 06:00 43.33362 21.86546 652 ft 13 kts 277°
2026-05-05 06:01 43.33401 21.86394 657 ft 21 kts 292°
2026-05-05 06:01 43.33478 21.86158 657 ft 33 kts 293°
2026-05-05 06:01 43.33591 21.85794 657 ft 50 kts 293°
2026-05-05 06:01 43.33739 21.85330 658 ft 52 kts 294°
2026-05-05 06:02 43.33881 21.84891 657 ft 48 kts 293°
2026-05-05 06:02 43.34008 21.84490 653 ft 45 kts 294°
2026-05-05 06:02 43.34083 21.84205 649 ft 19 kts 263°
2026-05-05 06:02 43.34119 21.84163 649 ft 8 kts 59°
2026-05-05 06:03 43.34095 21.84226 649 ft 8 kts 124°
2026-05-05 06:03 43.33988 21.84557 656 ft 75 kts 115°
2026-05-05 06:03 43.33685 21.85509 658 ft 141 kts 113°
2026-05-05 06:03 43.33225 21.86985 725 ft 192 kts 113°
2026-05-05 06:04 43.32708 21.88795 1149 ft 215 kts 107°
2026-05-05 06:04 43.32402 21.90902 1636 ft 232 kts 97°
2026-05-05 06:04 43.32342 21.93111 2544 ft 226 kts 88°
2026-05-05 06:04 43.32524 21.95176 3308 ft 225 kts 81°
2026-05-05 06:05 43.32826 21.97329 3842 ft 233 kts 79°
2026-05-05 06:05 43.33371 21.99473 4379 ft 241 kts 55°
2026-05-05 06:05 43.34654 22.00845 5111 ft 239 kts 24°
2026-05-05 06:05 43.36185 22.01801 5660 ft 243 kts 26°
2026-05-05 06:06 43.37700 22.02826 6312 ft 244 kts 26°
2026-05-05 06:06 43.39345 22.03396 6850 ft 249 kts 355°
2026-05-05 06:06 43.40993 22.02570 7146 ft 267 kts 325°
2026-05-05 06:06 43.42533 22.00972 7557 ft 282 kts 322°
2026-05-05 06:07 43.44094 21.99336 8363 ft 282 kts 323°
2026-05-05 06:07 43.45664 21.97711 9177 ft 283 kts 323°
2026-05-05 06:07 43.47246 21.96089 9960 ft 285 kts 324°
2026-05-05 06:07 43.48847 21.94460 10678 ft 287 kts 324°
2026-05-05 06:08 43.50466 21.92809 11376 ft 291 kts 324°
2026-05-05 06:08 43.52104 21.91152 12058 ft 294 kts 324°
2026-05-05 06:08 43.53761 21.89475 12770 ft 296 kts 324°
2026-05-05 06:08 43.55418 21.87779 13474 ft 299 kts 322°
2026-05-05 06:09 43.56863 21.85670 14138 ft 304 kts 309°
2026-05-05 06:09 43.58100 21.83287 14755 ft 308 kts 306°
2026-05-05 06:09 43.59312 21.80846 15395 ft 309 kts 306°
2026-05-05 06:09 43.60125 21.79217 15813 ft 311 kts 307°
2026-05-05 06:10 43.61792 21.75936 16632 ft 314 kts 307°
2026-05-05 06:10 43.62639 21.74295 17020 ft 316 kts 307°
2026-05-05 06:10 43.63930 21.71815 17622 ft 319 kts 308°
2026-05-05 06:10 43.65233 21.69325 18257 ft 321 kts 308°
2026-05-05 06:11 43.66549 21.66811 18812 ft 324 kts 308°
2026-05-05 06:11 43.67898 21.64254 18777 ft 334 kts 310°
2026-05-05 06:11 43.69602 21.62154 18717 ft 323 kts 333°
2026-05-05 06:11 43.71627 21.60887 18709 ft 318 kts 338°
2026-05-05 06:12 43.73665 21.59713 18721 ft 318 kts 338°
2026-05-05 06:12 43.75717 21.58526 18707 ft 321 kts 338°
2026-05-05 06:12 43.77784 21.57322 18708 ft 322 kts 338°
2026-05-05 06:12 43.79850 21.56110 18708 ft 323 kts 338°
2026-05-05 06:13 43.81926 21.54890 18704 ft 324 kts 338°
2026-05-05 06:13 43.83986 21.53674 18713 ft 324 kts 338°
2026-05-05 06:13 43.86045 21.52454 18704 ft 324 kts 338°
2026-05-05 06:13 43.88118 21.51225 18706 ft 323 kts 338°
2026-05-05 06:14 43.90182 21.49999 18697 ft 323 kts 338°
2026-05-05 06:14 43.92243 21.48774 18699 ft 322 kts 338°
2026-05-05 06:14 43.94306 21.47548 18700 ft 321 kts 338°
2026-05-05 06:14 43.96355 21.46330 18698 ft 321 kts 338°
2026-05-05 06:15 43.98403 21.45111 18700 ft 320 kts 338°
2026-05-05 06:15 44.00450 21.43892 18698 ft 320 kts 338°
2026-05-05 06:15 44.02482 21.42679 18698 ft 319 kts 338°
2026-05-05 06:15 44.04541 21.41449 18705 ft 319 kts 337°
2026-05-05 06:16 44.06583 21.40228 18701 ft 320 kts 338°
2026-05-05 06:16 44.08635 21.38999 18698 ft 320 kts 337°
2026-05-05 06:16 44.10679 21.37774 18701 ft 321 kts 337°
2026-05-05 06:16 44.12735 21.36543 18702 ft 321 kts 337°
2026-05-05 06:17 44.14787 21.35311 18698 ft 322 kts 337°
2026-05-05 06:17 44.16842 21.34079 18698 ft 322 kts 337°
2026-05-05 06:17 44.18878 21.32855 18699 ft 322 kts 337°
2026-05-05 06:17 44.20938 21.31619 18699 ft 322 kts 337°
2026-05-05 06:18 44.22996 21.30383 18699 ft 323 kts 337°
2026-05-05 06:18 44.25048 21.29150 18689 ft 323 kts 337°
2026-05-05 06:18 44.27123 21.27901 18688 ft 324 kts 337°
2026-05-05 06:18 44.29187 21.26660 18692 ft 324 kts 337°
2026-05-05 06:19 44.31132 21.25097 18647 ft 325 kts 318°
2026-05-05 06:19 44.32493 21.22566 18378 ft 331 kts 295°
2026-05-05 06:19 44.33105 21.19463 17970 ft 335 kts 278°
2026-05-05 06:19 44.33365 21.16203 17390 ft 340 kts 277°
2026-05-05 06:20 44.33618 21.12904 16983 ft 340 kts 277°
2026-05-05 06:20 44.33868 21.09669 16714 ft 335 kts 277°
2026-05-05 06:20 44.34125 21.06424 16251 ft 337 kts 277°
2026-05-05 06:20 44.34387 21.03173 15927 ft 334 kts 277°
2026-05-05 06:21 44.34648 20.99969 15622 ft 331 kts 277°
2026-05-05 06:21 44.34908 20.96782 15320 ft 328 kts 277°
2026-05-05 06:21 44.35166 20.93630 15041 ft 325 kts 277°
2026-05-05 06:21 44.35419 20.90525 14774 ft 317 kts 278°
2026-05-05 06:22 44.35666 20.87481 14530 ft 314 kts 277°
2026-05-05 06:22 44.35910 20.84462 14297 ft 310 kts 278°
2026-05-05 06:22 44.36152 20.81486 14043 ft 307 kts 279°
2026-05-05 06:22 44.36737 20.78703 13760 ft 301 kts 303°
2026-05-05 06:23 44.37900 20.76304 13543 ft 296 kts 305°
2026-05-05 06:23 44.39015 20.73890 13271 ft 296 kts 303°
2026-05-05 06:23 44.40104 20.71460 13000 ft 295 kts 303°
2026-05-05 06:23 44.41192 20.69036 12735 ft 293 kts 303°
2026-05-05 06:24 44.42285 20.66600 12366 ft 297 kts 303°
2026-05-05 06:24 44.43388 20.64148 11999 ft 298 kts 303°
2026-05-05 06:24 44.44496 20.61689 11630 ft 300 kts 303°
2026-05-05 06:24 44.45371 20.59744 11290 ft 303 kts 303°
2026-05-05 06:25 44.46509 20.57216 10704 ft 309 kts 303°
2026-05-05 06:25 44.47657 20.54659 10129 ft 310 kts 303°
2026-05-05 06:25 44.48807 20.52095 9486 ft 312 kts 303°
2026-05-05 06:25 44.50007 20.49545 8733 ft 316 kts 310°
2026-05-05 06:26 44.51735 20.47664 7951 ft 318 kts 338°
2026-05-05 06:26 44.53896 20.47051 7157 ft 321 kts
2026-05-05 06:26 44.56047 20.47704 6386 ft 324 kts 24°
2026-05-05 06:26 44.57849 20.49645 5556 ft 327 kts 55°
2026-05-05 06:27 44.58630 20.52521 5323 ft 310 kts 84°
2026-05-05 06:27 44.57950 20.58094 5057 ft 278 kts 118°
2026-05-05 06:27 44.57005 20.60356 5022 ft 258 kts 124°
2026-05-05 06:28 44.56074 20.62380 4991 ft 237 kts 124°
2026-05-05 06:28 44.55213 20.64234 4973 ft 216 kts 124°
2026-05-05 06:28 44.54435 20.65915 4979 ft 198 kts 124°
2026-05-05 06:28 44.53711 20.67500 4989 ft 190 kts 124°
2026-05-05 06:29 44.52966 20.69108 5022 ft 202 kts 124°
2026-05-05 06:29 44.52204 20.70780 5000 ft 205 kts 123°
2026-05-05 06:29 44.51443 20.72470 4855 ft 213 kts 123°
2026-05-05 06:29 44.50869 20.74381 4594 ft 215 kts 94°
2026-05-05 06:30 44.51278 20.76336 4307 ft 212 kts 51°
2026-05-05 06:30 44.52428 20.77609 4156 ft 214 kts 32°
2026-05-05 06:30 44.53700 20.78701 4008 ft 211 kts 32°
2026-05-05 06:30 44.54935 20.79787 4013 ft 210 kts 33°
2026-05-05 06:31 44.56174 20.80885 4000 ft 209 kts 33°
2026-05-05 06:31 44.57436 20.81816 3972 ft 204 kts 13°
2026-05-05 06:31 44.58753 20.81503 4057 ft 194 kts 327°
2026-05-05 06:31 44.59794 20.80252 4006 ft 196 kts 305°
2026-05-05 06:32 44.60531 20.78658 3993 ft 196 kts 300°
2026-05-05 06:32 44.61243 20.77035 4002 ft 196 kts 302°
2026-05-05 06:32 44.62001 20.75381 4013 ft 205 kts 300°
2026-05-05 06:32 44.62760 20.73684 4039 ft 209 kts 300°
2026-05-05 06:33 44.63525 20.71926 4029 ft 210 kts 299°
2026-05-05 06:33 44.64293 20.70177 3999 ft 210 kts 300°
2026-05-05 06:33 44.65053 20.68435 4005 ft 209 kts 298°
2026-05-05 06:33 44.65764 20.66668 3991 ft 204 kts 299°
2026-05-05 06:34 44.66467 20.64956 3981 ft 201 kts 299°
2026-05-05 06:34 44.67196 20.63308 3988 ft 198 kts 301°
2026-05-05 06:34 44.67924 20.61666 4042 ft 205 kts 300°
2026-05-05 06:34 44.68709 20.59933 3978 ft 208 kts 301°
2026-05-05 06:35 44.69455 20.58285 4025 ft 198 kts 301°
2026-05-05 06:35 44.70221 20.56627 3728 ft 202 kts 302°
2026-05-05 06:35 44.70937 20.55022 3478 ft 194 kts 298°
2026-05-05 06:35 44.71629 20.53453 3336 ft 186 kts 301°
2026-05-05 06:36 44.72317 20.51926 3199 ft 185 kts 300°
2026-05-05 06:36 44.72954 20.50414 3164 ft 179 kts 300°
2026-05-05 06:36 44.73671 20.48983 2982 ft 178 kts 305°
2026-05-05 06:36 44.74336 20.47568 2840 ft 172 kts 298°
2026-05-05 06:37 44.74973 20.46081 2579 ft 175 kts 302°
2026-05-05 06:37 44.75635 20.44706 2447 ft 169 kts 302°
2026-05-05 06:37 44.76283 20.43305 2020 ft 170 kts 301°
2026-05-05 06:37 44.76906 20.41980 1898 ft 152 kts 301°
2026-05-05 06:38 44.77487 20.40732 1721 ft 158 kts 301°
2026-05-05 06:38 44.78053 20.39430 1436 ft 150 kts 301°
2026-05-05 06:38 44.78622 20.38211 1176 ft 147 kts 302°
2026-05-05 06:38 44.79087 20.37136 1062 ft 140 kts 298°
2026-05-05 06:39 44.79319 20.36577 1059 ft 140 kts 300°
2026-05-05 06:39 44.79852 20.35376 897 ft 145 kts 300°
2026-05-05 06:39 44.80377 20.34202 693 ft 140 kts 302°
2026-05-05 06:39 44.80883 20.33064 461 ft 133 kts 302°
2026-05-05 06:40 44.81368 20.31976 325 ft 131 kts 302°
2026-05-05 06:40 44.81833 20.30931 309 ft 112 kts 302°
2026-05-05 06:40 44.82162 20.30193 304 ft 57 kts 302°
2026-05-05 06:40 44.82313 20.29851 306 ft 10 kts 297°
2026-05-05 06:41 44.82327 20.29756 307 ft 10 kts 256°
2026-05-05 06:41 44.82281 20.29690 307 ft 0 kts 210°
2026-05-05 06:42 44.82275 20.29685 307 ft 3 kts 210°
2026-05-05 06:42 44.82244 20.29659 310 ft 6 kts 211°
2026-05-05 06:42 44.82206 20.29625 307 ft 7 kts 213°
2026-05-05 06:43 44.82158 20.29580 308 ft 11 kts 212°
2026-05-05 06:43 44.82088 20.29507 306 ft 11 kts 245°
2026-05-05 06:43 44.82118 20.29392 308 ft 15 kts 303°
2026-05-05 06:43 44.82164 20.29286 307 ft 10 kts 291°
2026-05-05 06:44 44.82138 20.29187 307 ft 13 kts 244°
2026-05-05 06:44 44.82128 20.29157 308 ft 1 kts 245°
2026-05-05 06:44 44.82127 20.29154 308 ft 0 kts 245°